This is the latest recevied weather packets stored in our database for station/object W4KUS-10. If no packets are shown the sender has not sent any weather packets the latest 10 day(s).
| Time | Temp. | Humidity | Pressure | Rain* | Wind** | Luminosity | Snow |
|---|---|---|---|---|---|---|---|
| 1778082940 | 28.33° C | 54% | 1015.8 hPa | 0 mm | - | - | - |
| 1778082640 | 27.78° C | 54% | 1015.7 hPa | 0 mm | - | - | - |
| 1778082340 | 27.78° C | 56% | 1015.6 hPa | 0 mm | - | - | - |
| 1778082040 | 28.33° C | 54% | 1015.6 hPa | 0 mm | - | - | - |
| 1778081740 | 28.33° C | 55% | 1015.6 hPa | 0 mm | - | - | - |
| 1778081440 | 28.33° C | 55% | 1015.6 hPa | 0 mm | - | - | - |
| 1778081140 | 28.33° C | 55% | 1015.6 hPa | 0 mm | - | - | - |
| 1778080841 | 28.33° C | 56% | 1015.7 hPa | 0 mm | - | - | - |
| 1778080541 | 27.78° C | 55% | 1015.8 hPa | 0 mm | - | - | - |
| 1778080241 | 27.78° C | 55% | 1015.9 hPa | 0 mm | - | - | - |
| 1778079941 | 27.78° C | 57% | 1015.8 hPa | 0 mm | - | - | - |
| 1778079641 | 27.22° C | 57% | 1015.7 hPa | 0 mm | - | - | - |
| 1778079341 | 27.22° C | 57% | 1015.9 hPa | 0 mm | - | - | - |
| 1778079041 | 27.22° C | 58% | 1015.8 hPa | 0 mm | - | - | - |
| 1778078741 | 27.22° C | 56% | 1015.8 hPa | 0 mm | - | - | - |
| 1778078441 | 27.22° C | 59% | 1015.7 hPa | 0 mm | - | - | - |
| 1778078141 | 26.67° C | 60% | 1015.7 hPa | 0 mm | - | - | - |
| 1778077841 | 26.67° C | 59% | 1015.8 hPa | 0 mm | - | - | - |
| 1778077541 | 26.67° C | 61% | 1015.8 hPa | 0 mm | - | - | - |
| 1778077241 | 26.11° C | 63% | 1015.7 hPa | 0 mm | - | - | - |
| 1778076941 | 26.11° C | 65% | 1015.6 hPa | 0 mm | - | - | - |
| 1778076641 | 26.11° C | 65% | 1015.7 hPa | 0 mm | - | - | - |
| 1778076341 | 26.11° C | 64% | 1015.6 hPa | 0 mm | - | - | - |
| 1778076041 | 26.11° C | 64% | 1015.6 hPa | 0 mm | - | - | - |
| 1778075741 | 26.11° C | 67% | 1015.6 hPa | 0 mm | - | - | - |
* Rain latest hour (hover to see other rain measurements)
** Current wind speed in m/s (hover to see current wind gust speed)